• Em Portugal
  • Lista de países
  • Para 7 dias
  • Temperatura da água
  • Mapas de satélite
  • Mapa do tempo
  • Widgets de tempo
  • user-avatar
    Iniciar Sessão

    Previsão horária em Goiania

    Hoje, 22 Novembro, Quarta-feira

    Tempo Temperatura Precipitação Vento Pressão Humidade
    00:00 +23°C° 0 mm 2 m/s 697 mmHg 91%
    01:00 +23°C° 0,1 mm 2 m/s 697 mmHg 91%
    02:00 +22°C° 0,1 mm 3 m/s 696 mmHg 92%
    03:00 +22°C° 0,1 mm 3 m/s 696 mmHg 92%
    04:00 +23°C° 0 mm 2 m/s 696 mmHg 92%
    05:00 +21°C° 0 mm 2 m/s 696 mmHg 93%
    06:00 +21°C° 0 mm 2 m/s 696 mmHg 94%
    07:00 +22°C° 0,4 mm 3 m/s 697 mmHg 90%
    08:00 +24°C° 0,4 mm 3 m/s 697 mmHg 87%
    09:00 +25°C° 0,4 mm 4 m/s 698 mmHg 83%
    10:00 +26°C° 1 mm 4 m/s 698 mmHg 82%
    11:00 +26°C° 1 mm 4 m/s 698 mmHg 81%
    12:00 +27°C° 1 mm 4 m/s 698 mmHg 80%
    13:00 +27°C° 0,9 mm 3 m/s 697 mmHg 81%
    14:00 +26°C° 0,9 mm 3 m/s 696 mmHg 81%
    15:00 +26°C° 0,9 mm 3 m/s 696 mmHg 82%
    16:00 +26°C° 0,5 mm 2 m/s 696 mmHg 85%
    17:00 +25°C° 0,5 mm 2 m/s 696 mmHg 89%
    18:00 +24°C° 0,5 mm 1 m/s 695 mmHg 92%
    19:00 +24°C° 0,2 mm 1 m/s 696 mmHg 93%
    20:00 +24°C° 0,2 mm 1 m/s 696 mmHg 94%
    21:00 +23°C° 0,2 mm 1 m/s 697 mmHg 95%
    22:00 +23°C° 0,1 mm 1 m/s 697 mmHg 95%
    23:00 +23°C° 0,1 mm 1 m/s 697 mmHg 95%

    Amanhã, 23 Novembro, Quinta-feira

    Tempo Temperatura Precipitação Vento Pressão Humidade
    00:00 +23°C° 0,1 mm 1 m/s 697 mmHg 95%
    01:00 +22°C° 0 mm 1 m/s 697 mmHg 95%
    02:00 +22°C° 0 mm 1 m/s 696 mmHg 95%
    03:00 +22°C° 0 mm 1 m/s 696 mmHg 95%
    04:00 +22°C° 0 mm 1 m/s 696 mmHg 94%
    05:00 +22°C° 0 mm 1 m/s 696 mmHg 94%
    06:00 +22°C° 0 mm 1 m/s 696 mmHg 93%
    07:00 +24°C° 0,1 mm 1 m/s 697 mmHg 87%
    08:00 +25°C° 0,1 mm 1 m/s 698 mmHg 80%
    09:00 +27°C° 0,1 mm 2 m/s 698 mmHg 73%
    10:00 +28°C° 1 mm 2 m/s 698 mmHg 72%
    11:00 +28°C° 1 mm 3 m/s 698 mmHg 71%
    12:00 +29°C° 1 mm 3 m/s 698 mmHg 69%
    13:00 +29°C° 2,3 mm 3 m/s 697 mmHg 72%
    14:00 +28°C° 2,3 mm 3 m/s 696 mmHg 75%
    15:00 +28°C° 2,3 mm 3 m/s 696 mmHg 77%
    16:00 +27°C° 2,2 mm 2 m/s 696 mmHg 81%
    17:00 +26°C° 2,2 mm 2 m/s 696 mmHg 85%
    18:00 +25°C° 2,2 mm 2 m/s 696 mmHg 89%
    19:00 +25°C° 0,9 mm 2 m/s 696 mmHg 90%
    20:00 +24°C° 0,9 mm 1 m/s 697 mmHg 90%
    21:00 +23°C° 0,9 mm 1 m/s 697 mmHg 91%
    22:00 +23°C° 0,7 mm 1 m/s 697 mmHg 91%
    23:00 +23°C° 0,7 mm 1 m/s 697 mmHg 91%

    Depois de amanhã, 24 Novembro, Sexta-feira

    Tempo Temperatura Precipitação Vento Pressão Humidade
    00:00 +21°C° 0,7 mm 0 m/s 697 mmHg 91%
    01:00 +20°C° 0,2 mm 0 m/s 697 mmHg 92%
    02:00 +20°C° 0,2 mm 0 m/s 696 mmHg 92%
    03:00 +20°C° 0,2 mm 0 m/s 696 mmHg 92%
    04:00 +22°C° 0 mm 1 m/s 696 mmHg 92%
    05:00 +22°C° 0 mm 1 m/s 697 mmHg 93%
    06:00 +22°C° 0 mm 1 m/s 697 mmHg 93%
    07:00 +24°C° 0 mm 1 m/s 698 mmHg 86%
    08:00 +26°C° 0 mm 2 m/s 698 mmHg 80%
    09:00 +28°C° 0 mm 2 m/s 699 mmHg 73%
    10:00 +29°C° 0,2 mm 2 m/s 699 mmHg 68%
    11:00 +30°C° 0,2 mm 2 m/s 699 mmHg 63%
    12:00 +31°C° 0,2 mm 2 m/s 699 mmHg 58%
    13:00 +31°C° 1,2 mm 2 m/s 698 mmHg 61%
    14:00 +31°C° 1,2 mm 2 m/s 697 mmHg 63%
    15:00 +30°C° 1,2 mm 2 m/s 696 mmHg 65%
    16:00 +29°C° 2,7 mm 1 m/s 696 mmHg 71%
    17:00 +28°C° 2,7 mm 1 m/s 696 mmHg 78%
    18:00 +27°C° 2,7 mm 1 m/s 696 mmHg 84%
    19:00 +26°C° 1,9 mm 1 m/s 697 mmHg 85%
    20:00 +25°C° 1,9 mm 1 m/s 697 mmHg 87%
    21:00 +24°C° 1,9 mm 2 m/s 698 mmHg 88%
    22:00 +24°C° 0,6 mm 2 m/s 698 mmHg 89%
    23:00 +23°C° 0,6 mm 2 m/s 698 mmHg 90%

    25 Novembro, Sábado

    Tempo Temperatura Precipitação Vento Pressão Humidade
    00:00 +23°C° 0,6 mm 2 m/s 698 mmHg 90%
    01:00 +23°C° 0,3 mm 1 m/s 697 mmHg 91%
    02:00 +22°C° 0,3 mm 1 m/s 697 mmHg 91%
    03:00 +22°C° 0,3 mm 1 m/s 697 mmHg 91%
    04:00 +22°C° 0 mm 1 m/s 697 mmHg 91%
    05:00 +21°C° 0 mm 2 m/s 697 mmHg 91%
    06:00 +21°C° 0 mm 2 m/s 698 mmHg 90%
    07:00 +24°C° 0,1 mm 2 m/s 699 mmHg 84%
    08:00 +26°C° 0,1 mm 3 m/s 699 mmHg 78%
    09:00 +28°C° 0,1 mm 3 m/s 700 mmHg 72%
    10:00 +29°C° 0,4 mm 3 m/s 700 mmHg 68%
    11:00 +30°C° 0,4 mm 3 m/s 699 mmHg 65%
    12:00 +32°C° 0,4 mm 4 m/s 699 mmHg 61%
    13:00 +31°C° 0,5 mm 3 m/s 698 mmHg 60%
    14:00 +31°C° 0,5 mm 3 m/s 698 mmHg 60%
    15:00 +31°C° 0,5 mm 3 m/s 697 mmHg 60%
    16:00 +30°C° 1 mm 2 m/s 697 mmHg 66%
    17:00 +29°C° 1 mm 2 m/s 697 mmHg 73%
    18:00 +27°C° 1 mm 1 m/s 696 mmHg 80%
    19:00 +26°C° 0,2 mm 1 m/s 697 mmHg 83%
    20:00 +25°C° 0,2 mm 1 m/s 697 mmHg 85%
    21:00 +24°C° 0,2 mm 1 m/s 698 mmHg 87%
    22:00 +24°C° 1,7 mm 1 m/s 698 mmHg 89%
    23:00 +24°C° 1,7 mm 1 m/s 698 mmHg 90%

    26 Novembro, Domingo

    Tempo Temperatura Precipitação Vento Pressão Humidade
    00:00 +23°C° 1,7 mm 1 m/s 698 mmHg 92%
    01:00 +23°C° 1,6 mm 2 m/s 698 mmHg 92%
    02:00 +23°C° 1,6 mm 2 m/s 697 mmHg 92%
    03:00 +23°C° 1,6 mm 2 m/s 697 mmHg 93%
    04:00 +23°C° 0,4 mm 2 m/s 697 mmHg 93%
    05:00 +23°C° 0,4 mm 2 m/s 697 mmHg 93%
    06:00 +21°C° 0,4 mm 2 m/s 698 mmHg 93%
    07:00 +24°C° 0,1 mm 3 m/s 698 mmHg 89%
    08:00 +25°C° 0,1 mm 3 m/s 699 mmHg 85%
    09:00 +26°C° 0,1 mm 4 m/s 699 mmHg 80%
    10:00 +27°C° 0,3 mm 4 m/s 699 mmHg 75%
    11:00 +28°C° 0,3 mm 4 m/s 698 mmHg 70%
    12:00 +29°C° 0,3 mm 4 m/s 698 mmHg 65%
    13:00 +30°C° 0,2 mm 4 m/s 698 mmHg 64%
    14:00 +30°C° 0,2 mm 4 m/s 697 mmHg 63%
    15:00 +30°C° 0,2 mm 3 m/s 696 mmHg 63%
    16:00 +29°C° 1 mm 3 m/s 696 mmHg 70%
    17:00 +27°C° 1 mm 2 m/s 696 mmHg 77%
    18:00 +26°C° 1 mm 2 m/s 696 mmHg 83%
    19:00 +25°C° 2,3 mm 2 m/s 697 mmHg 86%
    20:00 +24°C° 2,3 mm 2 m/s 697 mmHg 88%
    21:00 +24°C° 2,3 mm 2 m/s 698 mmHg 90%
    22:00 +23°C° 1,1 mm 2 m/s 698 mmHg 91%
    23:00 +23°C° 1,1 mm 2 m/s 697 mmHg 91%

    27 Novembro, Segunda-feira

    Tempo Temperatura Precipitação Vento Pressão Humidade
    00:00 +23°C° 1,1 mm 1 m/s 697 mmHg 92%
    01:00 +23°C° 0,2 mm 2 m/s 697 mmHg 93%
    02:00 +23°C° 0,2 mm 2 m/s 696 mmHg 93%
    03:00 +21°C° 0,2 mm 2 m/s 696 mmHg 93%
    04:00 +21°C° 0 mm 2 m/s 696 mmHg 93%
    05:00 +21°C° 0 mm 2 m/s 697 mmHg 93%
    06:00 +21°C° 0 mm 2 m/s 697 mmHg 93%
    07:00 +23°C° 0,4 mm 2 m/s 698 mmHg 89%
    08:00 +24°C° 0,4 mm 2 m/s 698 mmHg 86%
    09:00 +25°C° 0,4 mm 2 m/s 699 mmHg 82%
    10:00 +26°C° 0,5 mm 2 m/s 699 mmHg 78%
    11:00 +27°C° 0,5 mm 2 m/s 698 mmHg 73%
    12:00 +29°C° 0,5 mm 2 m/s 698 mmHg 69%
    13:00 +29°C° 0,6 mm 2 m/s 698 mmHg 67%
    14:00 +30°C° 0,6 mm 2 m/s 698 mmHg 65%
    15:00 +30°C° 0,6 mm 2 m/s 697 mmHg 63%
    16:00 +29°C° 0,9 mm 2 m/s 697 mmHg 70%
    17:00 +28°C° 0,9 mm 1 m/s 697 mmHg 76%
    18:00 +26°C° 0,9 mm 1 m/s 697 mmHg 83%
    19:00 +26°C° 2,4 mm 1 m/s 698 mmHg 85%
    20:00 +25°C° 2,4 mm 1 m/s 698 mmHg 88%
    21:00 +24°C° 2,4 mm 1 m/s 699 mmHg 90%
    22:00 +24°C° 0,7 mm 1 m/s 699 mmHg 91%
    23:00 +23°C° 0,7 mm 1 m/s 699 mmHg 91%
    Mostrar mais